Hourly Data Report for September 01, 2017

All times are specified in Local Standard Time (LST). Add 1 hour to adjust for Daylight Saving Time where and when it is observed.

GJOA HAVEN A
NUNAVUT

68°38'08.000" N
95°51'01.000" W
46.90 m
2302337
71597
YHK

Download Data

Hourly Data (September 2017)
Hourly Data Report for September 1, 2017
Temp Definition
°C
Dew Point Temp Definition
°C
Rel Hum Definition
%
Wind Dir Definition
10's deg

Wind Spd Definition
km/h
Visibility Definition
km
Stn Press Definition
kPa
Hmdx Definition


Wind Chill Definition


Weather Definition


TIME
00:00 Legend Double Dagger 3.6 1.6 87 6 35 16.1 99.71     LegendNANA
01:00 Legend Double Dagger 3.1 0.7 85 6 32 16.1 99.77     LegendNANA
02:00 Legend Double Dagger 2.5 -0.1 83 6 35 16.1 99.83     LegendNANA
03:00 Legend Double Dagger 1.9 -0.4 85 6 32 16.1 99.89     LegendNANA
04:00 Legend Double Dagger 1.6 -0.7 85 6 30 16.1 99.95     LegendNANA
05:00 Legend Double Dagger 1.4 -1.0 84 6 30 16.1 100.00     LegendNANA
06:00 Legend Double Dagger 1.4 -1.0 84 6 32 16.1 100.04     LegendNANA
07:00 Legend Double Dagger 1.4 -1.3 82 5 32 16.1 100.09     LegendNANA
08:00 Legend Double Dagger 2.0 -1.1 80 5 37 16.1 100.11     LegendNANA
09:00 Legend Double Dagger 2.1 -0.9 81 7 30 16.1 100.16     LegendNANA
10:00 Legend Double Dagger 2.4 -0.7 80 5 34 16.1 100.19     LegendNANA
11:00 Legend Double Dagger 2.8 -0.9 77 6 32 16.1 100.23     LegendNANA
12:00 Legend Double Dagger 2.6 -0.9 78 6 32 16.1 100.28     LegendNANA
13:00 Legend Double Dagger 3.0 -0.8 76 6 26 16.1 100.33     LegendNANA
14:00 Legend Double Dagger 3.1 -1.0 74 5 26 16.1 100.36     LegendNANA
15:00 Legend Double Dagger 3.5 -1.0 72 5 30 16.1 100.36     LegendNANA
16:00 Legend Double Dagger 3.3 -0.9 74 5 32 16.1 100.39     LegendNANA
17:00 Legend Double Dagger 3.0 -0.9 76 5 34 16.1 100.41     LegendNANA
18:00 Legend Double Dagger 2.6 -0.9 78 6 32 16.1 100.49     LegendNANA
19:00 Legend Double Dagger 2.4 -0.4 82 7 32 16.1 100.55     LegendNANA
20:00 Legend Double Dagger 2.0 -0.4 84 7 35 16.1 100.57     LegendNANA
21:00 Legend Double Dagger 1.8 -0.1 87 8 34 16.1 100.58     LegendNANA
22:00 Legend Double Dagger 1.7 -0.4 86 7 34 16.1 100.59     LegendNANA
23:00 Legend Double Dagger 1.9 -0.5 84 8 32 16.1 100.61     LegendNANA

Notes on Data Quality.

Legend

  • E = Estimated
  • M = Missing
  • NA = Not Available
  • ‡ = Partner data that is not subject to review by the National Climate Archives
Date modified: